STARLINK-31461, 59370

Orbit data source: Space-Track

STARLINK-31461, 59370 is a payload satellite owned by SpaceX/Seattle (US) in LEO that was launched on Sun, 31 Mar 2024 UTC via an FALCON 9 launch vehicle from the Air Force Eastern Test Range (AFETR). Payload-class satellites include a variety of spacecraft equipped with specific instruments for various scientific and technological missions. These include communications satellites like Starlink; space stations such as the ISS; scientific satellites like the Hubble; Earth observation satellites from companies like Planet Labs, Umbra, and HawkEye 360; GPS; miniature CubeSats for education and research; and military/defense satellites.

Loading next visibility...
Identifier
59370, 2024-060Y
Orbit
LEO
Country
Flag of USUS
Related business
Manufacturer
SpaceX/Seattle
Mission
Operational Commercial Communications
Bus & Motor
STARLINK V2M, Unknown motor
Mass
730 kg wet, ~700 kg dry
Launch date (UTC)
2024-03-31 (2 years ago)
Launch vehicle
FALCON 9
Launch site
Air Force Eastern Test Range (AFETR)
Object type
Payload
Rocket body
Debris
Shape & HBR
Box + 2 Pan, 17.7 m
Radar Cross Section
33.884 m², Large (>1 m²)

Expand to show TLE details & history
Last TLE update: 10 hours ago

TLE from 10 hours ago
0 STARLINK-31461
1 59370U 24060Y   25289.41814816  .00005174  00000-0  19746-3 0  9992
2 59370  43.0062 343.7872 0001395 249.0857 110.9846 15.27573516 88061
Epoch: 2025-10-16T10:02Z
TLE epoch observation values (Epoch: 2025-10-16T10:02:08.001Z)
Latitude
0.00004°
Longitude
168.07574°
Altitude
483.187 km
Speed
7.625 km/s
True Right ascension
22h 55m 08s
True Declination
0° 00' 00"
Sunlit
Object was in full shadow at epoch
Visualization orbit readout
Latitude
Unknown
Longitude
Unknown
Altitude
Unknown
Speed
Unknown
Apparent Right ascension
Unknown
Apparent Declination
Unknown
Sunlit
N/A
Visualization observer readout
Local Sidereal Time
14:29:34
Azimuth
Unknown
Elevation
Unknown
Doppler factor
Unknown
Orbital elements
Apogee altitude
485.97 km
Perigee altitude
484.055 km
Semi-major axis
6,863.15 km
Eccentricity
0.00014
Inclination
43.0062°
RAAN
343.7872°
Arg. of periapsis
249.0857°
True anomaly
110.99952°
Mean anomaly
110.9846°
Eccentric anomaly
110.99206°
Mean motion
3.81731 °/min
Orbital period
94.31 mins
BSTAR
0.00019746
Loading maneuver chart data...
Computing Atmospheric mass density...
Loading historical data...
Loading historical data...
Loading historical data...
Loading historical data...
Loading historical data...
Loading historical data...
Loading historical data...

Documentation

Showing up to 5 results
|